Stockton, CA

5:11 PM PDT on April 27, 2017 (GMT -0700)
Stockton Metro

Weather History for KSCK - February, 2013

Change the Weather History Date:

Wednesday, February 6, 2013

  Actual Average Record
Temperature  
Mean Temperature 50 °F -  
Max Temperature 60 °F 59 °F 70 °F (1987)
Min Temperature 40 °F 39 °F 22 °F (1989)
Degree Days  
Heating Degree Days 15 16  
Month to date heating degree days 94 99  
Since 1 July heating degree days 1642 1754  
Cooling Degree Days 0 0  
Month to date cooling degree days 0 0  
Year to date cooling degree days 0 0  
Moisture  
Dew Point 41 °F    
Average Humidity 76    
Maximum Humidity 100    
Minimum Humidity 51    
Precipitation  
Precipitation 0.00 in 0.09 in 0.73 in (1983)
Month to date precipitation 0.00 0.58  
Year to date precipitation 1.28 3.32  
Since 1 July precipitation 8.40  
Snow  
Snow 0.00 in - - ()
Month to date snowfall 0.0  
Since 1 July snowfall 0.0  
Snow Depth -    
Sea Level Pressure  
Sea Level Pressure 30.15 in    
Wind  
Wind Speed 6 mph (WNW)    
Max Wind Speed 14 mph    
Max Gust Speed 24 mph    
Visibility 8 miles    
Events      
T = Trace of Precipitation, MM = Missing Value Source: NWS Daily Summary

Daily Weather History Graph

Daily Weather History Graph

Search for Another Location

Airport or City:

Trip Planner

Search our weather history database for the weather conditions in past years. The results will help you decide how hot, cold, wet, or windy it might be!

Date:

Astronomy

Feb. 06, 2013 Rise Set
Actual Time 7:04 AM PST 5:34 PM PST
Civil Twilight 6:36 AM PST 6:01 PM PST
Nautical Twilight 6:05 AM PST 6:32 PM PST
Astronomical Twilight 5:35 AM PST 7:03 PM PST
Moon 3:51 AM PST (2/6) 2:00 PM PST (2/6)
Length of Visible Light 11h 24m
Length of Day
10h 30m
Waning Crescent, 16% of the Moon is Illuminated
Feb 6
Waning Crescent
Feb 9
New
Feb 17
First Quarter
Feb 25
Full
Mar 4
Last Quarter

Hourly Weather History & Observations

Time (PST) Temp. Windchill Dew Point Humidity Pressure Visibility Wind Dir Wind Speed Gust Speed Precip Events Conditions
12:55 AM 45.0 °F 39.3 °F 41.0 °F 86% 30.12 in 10.0 mi WNW 11.5 mph - N/A   Clear
1:55 AM 43.0 °F 40.3 °F 39.9 °F 89% 30.13 in 10.0 mi NNW 4.6 mph - N/A   Clear
2:55 AM 43.0 °F 37.7 °F 39.9 °F 89% 30.12 in 10.0 mi West 9.2 mph - N/A   Clear
3:53 AM 41.0 °F 35.8 °F 39.2 °F 93% 30.11 in 10.0 mi West 8.1 mph - N/A   Scattered Clouds
3:55 AM 41.0 °F 35.2 °F 39.0 °F 93% 30.12 in 10.0 mi West 9.2 mph - N/A   Mostly Cloudy
4:55 AM 44.1 °F 38.6 °F 42.1 °F 93% 30.12 in 8.0 mi WNW 10.4 mph - N/A   Overcast
5:55 AM 44.1 °F 39.0 °F 43.0 °F 96% 30.14 in 6.0 mi NW 9.2 mph - N/A   Overcast
6:32 AM 42.8 °F 38.0 °F 41.0 °F 93% 30.14 in 5.0 mi NW 8.1 mph - N/A   Scattered Clouds
6:55 AM 39.9 °F 37.8 °F 39.9 °F 100% 30.15 in 4.0 mi NNW 3.5 mph - N/A   Clear
7:12 AM 39.2 °F 35.9 °F 39.2 °F 100% 30.16 in 2.5 mi North 4.6 mph - N/A   Clear
7:30 AM 39.2 °F 35.9 °F 39.2 °F 100% 30.16 in 3.0 mi North 4.6 mph - N/A   Clear
7:52 AM 41.0 °F - 39.2 °F 93% 30.17 in 2.5 mi Calm Calm - N/A   Partly Cloudy
7:55 AM 41.0 °F - 39.9 °F 96% 30.17 in 2.0 mi Calm Calm - N/A   Partly Cloudy
8:04 AM 41.0 °F - 41.0 °F 100% 30.18 in 3.0 mi Calm Calm - N/A   Partly Cloudy
8:55 AM 46.0 °F - 42.1 °F 86% 30.18 in 6.0 mi Calm Calm - N/A   Clear
9:55 AM 48.9 °F - 44.1 °F 83% 30.18 in 3.0 mi NW 4.6 mph - N/A   Haze
10:55 AM 52.0 °F - 45.0 °F 77% 30.18 in 7.0 mi West 5.8 mph - N/A   Clear
11:55 AM 55.0 °F - 46.0 °F 72% 30.16 in 9.0 mi NW 8.1 mph - N/A   Partly Cloudy
12:55 PM 57.0 °F - 43.0 °F 59% 30.14 in 10.0 mi NW 10.4 mph - N/A   Clear
1:55 PM 57.9 °F - 41.0 °F 53% 30.12 in 10.0 mi Variable 4.6 mph - N/A   Clear
2:55 PM 59.0 °F - 41.0 °F 51% 30.12 in 10.0 mi West 3.5 mph - N/A   Clear
3:55 PM 59.0 °F - 39.9 °F 49% 30.12 in 10.0 mi Calm Calm - N/A   Clear
4:55 PM 57.0 °F - 39.9 °F 53% 30.12 in 10.0 mi West 5.8 mph - N/A   Clear
5:55 PM 55.0 °F - 37.9 °F 53% 30.12 in 10.0 mi Calm Calm - N/A   Clear
6:55 PM 48.0 °F - 37.0 °F 66% 30.13 in 10.0 mi Calm Calm - N/A   Clear
7:55 PM 46.9 °F - 42.1 °F 83% 30.14 in 10.0 mi South 8.1 mph - N/A   Clear
8:55 PM 48.9 °F - 44.1 °F 83% 30.16 in 8.0 mi SSW 4.6 mph - N/A   Overcast
9:55 PM 46.9 °F - 44.1 °F 90% 30.18 in 7.0 mi WSW 4.6 mph - N/A   Mostly Cloudy
10:55 PM 46.0 °F 42.5 °F 39.9 °F 79% 30.17 in 10.0 mi SW 6.9 mph - N/A   Scattered Clouds
11:55 PM 46.9 °F - 42.1 °F 83% 30.18 in 10.0 mi West 9.2 mph - N/A   Mostly Cloudy